TimePST,TemperatureF,Dew PointF,Humidity,Sea Level PressureIn,VisibilityMPH,Wind Direction,Wind SpeedMPH,Gust SpeedMPH,PrecipitationIn,Events,Conditions,WindDirDegrees,DateUTC
12:35 AM,51.8,41.0,67,30.42,10.0,East,6.9,-,N/A,,Clear,100,2013-03-01 08:35:00
12:55 AM,48.2,39.2,71,30.42,10.0,Calm,Calm,-,N/A,,Clear,0,2013-03-01 08:55:00
1:15 AM,48.2,41.0,76,30.42,10.0,Calm,Calm,-,N/A,,Clear,0,2013-03-01 09:15:00
1:35 AM,46.4,39.2,76,30.42,10.0,Calm,Calm,-,N/A,,Clear,0,2013-03-01 09:35:00
1:55 AM,48.2,39.2,71,30.42,10.0,Calm,Calm,-,N/A,,Clear,0,2013-03-01 09:55:00
2:15 AM,48.2,39.2,71,30.41,10.0,East,3.5,-,N/A,,Clear,100,2013-03-01 10:15:00
2:35 AM,48.2,39.2,71,30.40,10.0,Calm,Calm,-,N/A,,Clear,0,2013-03-01 10:35:00
3:15 AM,46.4,39.2,76,30.40,10.0,Calm,Calm,-,N/A,,Clear,0,2013-03-01 11:15:00
3:35 AM,46.4,39.2,76,30.40,10.0,Calm,Calm,-,N/A,,Clear,0,2013-03-01 11:35:00
3:55 AM,46.4,39.2,76,30.40,10.0,Calm,Calm,-,N/A,,Clear,0,2013-03-01 11:55:00
4:15 AM,46.4,39.2,76,30.40,10.0,Calm,Calm,-,N/A,,Clear,0,2013-03-01 12:15:00
4:35 AM,46.4,39.2,76,30.40,10.0,Calm,Calm,-,N/A,,Clear,0,2013-03-01 12:35:00
4:55 AM,44.6,39.2,81,30.39,10.0,Calm,Calm,-,N/A,,Clear,0,2013-03-01 12:55:00
5:15 AM,42.8,37.4,81,30.39,10.0,Calm,Calm,-,N/A,,Clear,0,2013-03-01 13:15:00
5:55 AM,42.8,37.4,81,30.40,10.0,Calm,Calm,-,N/A,,Clear,0,2013-03-01 13:55:00
6:15 AM,44.6,37.4,76,30.40,10.0,East,3.5,-,N/A,,Clear,100,2013-03-01 14:15:00
6:35 AM,46.4,39.2,76,30.40,10.0,ESE,5.8,-,N/A,,Clear,110,2013-03-01 14:35:00
6:55 AM,46.4,39.2,76,30.40,10.0,ESE,5.8,-,N/A,,Clear,110,2013-03-01 14:55:00
7:15 AM,46.4,39.2,76,30.41,10.0,East,6.9,-,N/A,,Clear,100,2013-03-01 15:15:00
7:35 AM,48.2,39.2,71,30.40,10.0,East,9.2,-,N/A,,Clear,100,2013-03-01 15:35:00
7:55 AM,51.8,39.2,62,30.40,10.0,East,8.1,-,N/A,,Clear,100,2013-03-01 15:55:00
8:15 AM,51.8,39.2,62,30.40,10.0,ESE,5.8,-,N/A,,Clear,110,2013-03-01 16:15:00
8:35 AM,53.6,41.0,62,30.40,10.0,ESE,6.9,-,N/A,,Clear,110,2013-03-01 16:35:00
8:55 AM,55.4,41.0,58,30.39,10.0,Calm,Calm,-,N/A,,Clear,0,2013-03-01 16:55:00
9:15 AM,57.2,41.0,55,30.39,10.0,Calm,Calm,-,N/A,,Clear,0,2013-03-01 17:15:00
9:35 AM,60.8,41.0,48,30.39,10.0,Calm,Calm,-,N/A,,Clear,0,2013-03-01 17:35:00
9:55 AM,60.8,42.8,52,30.39,10.0,Calm,Calm,-,N/A,,Clear,0,2013-03-01 17:55:00
10:15 AM,60.8,42.8,52,30.38,10.0,WNW,3.5,-,N/A,,Clear,290,2013-03-01 18:15:00
10:35 AM,62.6,42.8,48,30.38,10.0,West,4.6,-,N/A,,Clear,270,2013-03-01 18:35:00
10:55 AM,64.4,42.8,45,30.38,10.0,Calm,Calm,-,N/A,,Clear,0,2013-03-01 18:55:00
11:15 AM,64.4,44.6,49,30.37,10.0,Calm,Calm,-,N/A,,Clear,0,2013-03-01 19:15:00
11:35 AM,66.2,44.6,46,30.37,10.0,West,4.6,-,N/A,,Clear,270,2013-03-01 19:35:00
11:55 AM,66.2,44.6,46,30.37,10.0,WSW,6.9,-,N/A,,Clear,240,2013-03-01 19:55:00
12:15 PM,66.2,44.6,46,30.36,10.0,Calm,Calm,-,N/A,,Clear,0,2013-03-01 20:15:00
12:35 PM,66.2,46.4,49,30.35,10.0,SW,5.8,-,N/A,,Clear,220,2013-03-01 20:35:00
12:55 PM,66.2,46.4,49,30.34,10.0,SW,5.8,-,N/A,,Clear,230,2013-03-01 20:55:00
1:15 PM,66.2,46.4,49,30.33,10.0,SSW,4.6,-,N/A,,Clear,210,2013-03-01 21:15:00
1:35 PM,66.2,48.2,52,30.32,10.0,SW,5.8,-,N/A,,Clear,230,2013-03-01 21:35:00
1:55 PM,66.2,46.4,49,30.31,10.0,WSW,6.9,-,N/A,,Clear,240,2013-03-01 21:55:00
2:15 PM,66.2,48.2,52,30.30,10.0,WSW,4.6,-,N/A,,Clear,250,2013-03-01 22:15:00
2:35 PM,66.2,46.4,49,30.30,10.0,SW,3.5,-,N/A,,Clear,230,2013-03-01 22:35:00
2:55 PM,66.2,46.4,49,30.30,10.0,WSW,4.6,-,N/A,,Clear,240,2013-03-01 22:55:00
3:15 PM,66.2,46.4,49,30.29,10.0,SW,6.9,-,N/A,,Clear,230,2013-03-01 23:15:00
3:35 PM,66.2,46.4,49,30.29,10.0,WSW,5.8,-,N/A,,Clear,240,2013-03-01 23:35:00
3:55 PM,66.2,46.4,49,30.29,10.0,WSW,4.6,-,N/A,,Clear,250,2013-03-01 23:55:00
4:15 PM,66.2,46.4,49,30.29,10.0,West,5.8,-,N/A,,Clear,280,2013-03-02 00:15:00
4:35 PM,66.2,46.4,49,30.29,10.0,SW,3.5,-,N/A,,Clear,220,2013-03-02 00:35:00
5:15 PM,66.2,46.4,49,30.28,10.0,Calm,Calm,-,N/A,,Clear,0,2013-03-02 01:15:00
5:35 PM,64.4,44.6,49,30.28,10.0,Calm,Calm,-,N/A,,Clear,0,2013-03-02 01:35:00
5:55 PM,62.6,46.4,55,30.28,10.0,Calm,Calm,-,N/A,,Clear,0,2013-03-02 01:55:00
6:15 PM,57.2,46.4,67,30.28,10.0,ESE,3.5,-,N/A,,Clear,110,2013-03-02 02:15:00
6:35 PM,55.4,44.6,67,30.28,10.0,Calm,Calm,-,N/A,,Clear,0,2013-03-02 02:35:00
7:15 PM,51.8,44.6,76,30.29,10.0,Calm,Calm,-,N/A,,Clear,0,2013-03-02 03:15:00
7:35 PM,50.0,44.6,82,30.28,10.0,Calm,Calm,-,N/A,,Clear,0,2013-03-02 03:35:00
7:55 PM,51.8,44.6,76,30.28,10.0,Calm,Calm,-,N/A,,Clear,0,2013-03-02 03:55:00
8:15 PM,57.2,46.4,67,30.28,10.0,East,3.5,-,N/A,,Clear,90,2013-03-02 04:15:00
8:35 PM,59.0,46.4,63,30.28,10.0,East,8.1,-,N/A,,Clear,90,2013-03-02 04:35:00
8:55 PM,57.2,46.4,67,30.28,10.0,East,4.6,-,N/A,,Clear,90,2013-03-02 04:55:00
9:15 PM,59.0,46.4,63,30.29,10.0,East,5.8,-,N/A,,Clear,100,2013-03-02 05:15:00
9:55 PM,59.0,46.4,63,30.30,10.0,ESE,5.8,-,N/A,,Clear,110,2013-03-02 05:55:00
10:15 PM,57.2,46.4,67,30.29,10.0,ESE,3.5,-,N/A,,Clear,110,2013-03-02 06:15:00
10:35 PM,57.2,46.4,67,30.29,10.0,East,8.1,-,N/A,,Clear,100,2013-03-02 06:35:00
11:15 PM,57.2,46.4,67,30.28,10.0,East,6.9,-,N/A,,Clear,100,2013-03-02 07:15:00
11:35 PM,55.4,46.4,72,30.28,10.0,ESE,3.5,-,N/A,,Clear,110,2013-03-02 07:35:00
11:55 PM,55.4,44.6,67,30.28,10.0,East,3.5,-,N/A,,Clear,100,2013-03-02 07:55:00